Location: Tuebingen alte Sternwarte
(48.5376°N, 9.0555°E)
Time: 02:40:17
(UTC+01:00)

Envisat - Visible Passes

Search period start: 22 November 2017 00:00
Search period end: 02 December 2017 00:00
Orbit: 764 x 766 km, 98.2° (Epoch: 21 November)

Date Brightness Start Highest point End Pass type
(mag) Time Alt. Az. Time Alt. Az. Time Alt. Az.
22 Nov 5.2 19:38:55 15° N 19:38:55 15° N 19:39:43 10° N visible
23 Nov 5.1 19:01:51 14° N 19:01:51 14° N 19:02:36 10° N visible
24 Nov 5.1 18:24:47 11° NNE 18:24:47 11° NNE 18:24:58 10° NNE visible
24 Nov 5.5 20:04:59 12° NNW 20:04:59 12° NNW 20:05:24 10° NNW visible
25 Nov 5.2 19:27:54 13° N 19:27:54 13° N 19:28:31 10° N visible
26 Nov 5.2 18:50:50 12° NNE 18:50:50 12° NNE 18:51:17 10° N visible
27 Nov 5.5 19:53:58 12° N 19:53:58 12° N 19:54:16 10° N visible
28 Nov 5.3 19:16:53 12° N 19:16:53 12° N 19:17:17 10° N visible
29 Nov 5.2 18:39:47 11° NNE 18:39:47 11° NNE 18:39:55 10° NNE visible
30 Nov 5.5 19:42:54 11° N 19:42:54 11° N 19:43:06 10° N visible
01 Dec 5.3 19:05:49 11° N 19:05:49 11° N 19:06:01 10° N visible
